Probability
0 0 0 0 0 0 0 0 0 0 0 0 0 0 0 0 0 0 0 0 0 0 0 0 0 0 0 0 0 0 0 0 0 0 0 0 0 0 0 0 0 0 0
0 0 0 0 0 0 0 0 0 0 0 0 0 0 0 0 0 0 0 0 0 0 0 0 0 0 0 0 0 0 0 0 0 0 0 0 0 0 0 0 0 0 0
0 0 0 0 0 0 0 0 0 0 0 0 0 0 0 0 0 0 0 0 0 0 0 0 0 0 0 1 0 0 0 0 0 0 0 0 0 0 0 0 0 0 0
0 0 0 0 0 0 0 0 0 0 0 0 0 0 0 0 0 0 0 0 0 0 0 0 0 0 0 0 0 0 0 0 0 0 0 0 0 0 0 0 0 0 0
0 0 0 0 0 0 0 0 0 0 0 0 0 0 0 0 0 0 0 0 0 0 0 0 0 1 0 0 0 0 0 0 0 0 0 0 0 0 0 0 0 0 0
0 0 0 0 0 0 0 0 0 0 0 0 0 0 0 0 0 0 0 0 0 0 0 0 0 0 0 0 0 0 0 0 0 0 0 0 0 0 0 0 0 0 0
0 0 0 0 0 0 0 0 0 0 0 0 1 1 0 0 0 0 0 0 0 0 0 0 0 0 0 0 0 0 0 0 0 0 0 0 0 0 0 0 0 0 0
0 0 0 0 0 0 0 0 0 0 0 0 2 2 1 1 1 0 0 0 0 0 0 0 0 0 0 0 0 0 0 0 0 0 0 0 0 0 0 0 0 0 0
0 0 0 0 0 0 0 0 0 1 1 0 1 2 2 2 2 1 0 0 0 0 0 0 0 0 0 0 0 0 0 0 0 0 0 0 0 0 0 0 0 0 0
0 0 0 1 0 0 0 0 0 2 3 2 2 1 1 2 2 1 0 0 0 0 0 0 0 0 0 0 0 0 0 0 0 0 0 0 0 0 0 0 0 0 0
1 1 2 3 2 2 2 1 1 2 4 5 4 2 0 1 1 1 0 0 0 0 0 0 0 0 0 0 0 0 0 0 0 0 0 0 0 0 0 0 0 0 0
2 2 4 4 3 3 3 1 1 1 2 4 5 4 2 1 1 0 0 0 0 0 0 0 0 0 0 0 0 0 0 0 0 0 0 0 0 0 0 0 0 0 0
2 3 3 3 3 2 1 1 0 0 0 2 3 4 4 3 1 0 1 1 1 0 0 0 0 0 0 0 0 0 0 0 0 0 0 0 0 0 0 0 0 0 0
1 1 1 1 1 1 0 0 0 0 0 0 1 2 3 3 2 1 2 3 2 1 0 1 1 0 0 0 0 0 0 0 0 0 0 0 0 0 0 0 0 0 0
0 0 0 0 0 0 0 0 0 0 0 0 0 0 0 1 2 1 1 3 3 1 1 1 1 0 0 0 0 0 0 0 0 0 0 0 0 0 0 0 0 0 0
0 0 0 0 0 0 0 0 0 0 0 0 0 0 0 0 1 0 0 2 2 1 0 1 1 0 0 0 0 0 0 0 0 0 0 0 0 0 0 0 0 0 0
0 0 0 0 0 0 0 0 0 0 0 0 0 0 0 0 0 0 0 1 1 1 0 0 0 0 0 0 0 0 0 0 0 0 0 0 0 0 0 0 0 0 0
0 0 0 0 0 0 0 0 0 0 0 0 0 0 0 0 0 0 0 0 0 0 0 0 0 0 0 0 0 0 0 0 0 0 0 0 0 0 0 0 0 0 0
0 0 0 0 0 0 0 0 0 0 0 0 0 0 0 0 0 0 0 0 0 0 0 0 0 0 0 0 0 0 0 0 0 0 0 0 0 0 0 0 0 0 0
0 0 0 0 0 0 0 0 0 0 0 0 0 0 0 0 0 0 0 0 0 0 0 0 0 0 0 0 0 0 0 0 0 0 0 0 0 0 0 0 0 0 0
0 0 0 0 1 1 0 0 0 0 0 0 0 0 0 0 0 0 0 0 0 0 0 0 0 0 0 0 0 0 0 0 0 0 0 0 0 0 0 0 0 0 0
1 1 1 1 2 2 1 0 0 0 0 0 0 0 0 0 0 0 0 0 0 0 0 0 0 0 0 0 0 0 0 0 1 0 0 0 0 0 0 0 0 0 0
1 2 2 3 5 4 1 0 0 0 0 0 0 0 0 0 0 0 0 0 0 0 0 0 0 0 0 0 0 0 0 0 0 0 0 1 0 0 0 0 0 0 0
0 1 1 4 5 3 1 0 0 0 0 0 0 0 0 0 0 0 0 0 0 0 0 0 0 0 0 0 0 0 0 0 0 0 0 1 1 0 0 0 0 0 0
0 0 1 2 2 1 0 0 0 0 0 0 0 0 0 0 0 0 0 0 0 0 0 0 0 0 0 0 0 0 0 0 0 0 0 0 1 0 0 0 0 0 0
0 0 0 1 0 0 0 0 0 0 0 0 0 0 0 0 0 0 0 0 0 0 0 0 0 0 0 0 0 0 0 0 0 0 0 0 1 0 0 0 0 0 0
Wind_Speed
6 5 5 4 5 4 5 3 4 4 2 2 2 1 1 1 0 1 4 5 3 1 1 2 2 2 2 2 2 2 3 4 5 5 6 6 5 4 3 2 1 1 1
5 5 5 5 5 5 4 4 3 3 3 2 2 2 1 1 1 2 2 5 5 4 2 2 2 2 2 2 2 2 3 4 4 5 6 6 5 4 3 2 1 1 0
7 6 5 6 6 6 6 4 3 2 2 2 3 2 1 1 1 2 2 1 4 6 5 4 3 3 3 3 2 2 2 2 3 4 5 5 5 5 4 3 3 2 1
8 6 5 5 6 6 5 4 3 4 4 4 3 2 2 2 2 2 2 3 2 4 7 7 6 4 3 3 2 2 2 2 1 2 3 4 4 5 5 5 4 4 3
9 7 5 5 7 6 5 5 5 4 4 3 3 2 2 2 1 2 2 2 3 2 4 7 6 6 5 3 2 2 2 2 2 1 1 2 3 4 4 5 5 5 4
9 7 5 7 6 6 6 6 6 4 3 4 4 4 3 3 3 3 1 1 2 2 1 2 3 6 5 4 3 2 2 2 1 1 1 1 2 3 4 4 5 5 5
9 8 6 7 6 6 8 9 7 7 6 5 4 4 5 6 5 4 4 4 4 2 4 4 2 2 4 5 4 4 2 2 1 2 1 1 1 1 2 3 4 4 4
10 8 9 7 7 7 8 8 7 6 5 5 5 4 5 6 6 6 5 5 6 5 4 4 5 3 2 3 6 4 4 2 2 2 2 2 1 1 2 2 2 3 3
9 9 10 8 8 8 7 9 9 9 7 6 6 5 4 5 3 5 7 7 6 4 5 5 5 5 4 3 4 6 3 3 2 2 2 2 2 1 2 2 2 2 2
8 9 9 9 9 8 8 9 10 8 8 7 6 6 4 2 2 3 4 6 7 7 7 5 6 5 5 4 2 3 2 1 1 1 1 1 2 2 2 2 2 2 2
7 8 8 8 8 7 8 8 8 9 8 9 7 6 6 4 5 3 3 4 5 7 8 7 6 6 5 5 4 5 5 2 1 1 1 1 1 2 2 3 3 3 2
4 6 7 7 7 6 7 7 7 9 9 9 8 8 8 7 7 6 6 5 5 5 7 6 7 6 6 6 7 7 6 5 4 3 2 1 1 2 2 3 3 4 3
4 5 6 6 5 6 6 6 6 7 9 9 10 8 8 8 6 6 6 6 5 4 4 6 7 7 7 7 6 10 9 8 7 6 4 2 1 1 2 3 3 4 4
3 4 5 5 5 5 5 5 5 6 7 8 9 9 7 8 7 7 7 6 6 5 6 7 5 7 7 8 7 11 9 12 10 8 7 5 3 1 1 2 3 3 4
3 4 5 5 5 4 5 5 4 6 6 7 8 9 8 7 6 7 7 6 6 6 6 6 5 6 6 6 7 9 10 13 13 10 9 7 6 4 2 1 1 2 3
4 5 5 4 5 5 4 4 4 4 5 6 5 7 8 6 6 7 7 7 7 7 6 4 4 3 4 5 7 9 9 13 13 12 11 10 8 7 5 4 3 2 3
5 5 4 4 4 4 4 4 4 4 6 6 7 7 8 8 7 7 7 7 8 7 9 6 3 3 4 6 5 7 8 9 10 14 12 11 10 9 8 7 6 5 4
4 4 4 4 3 3 3 3 3 4 5 5 6 7 7 6 8 7 7 8 8 8 8 9 6 4 6 5 5 7 7 7 8 12 14 12 12 11 10 9 8 7 6
4 4 4 4 4 4 3 3 3 4 4 4 4 5 5 6 7 6 7 7 6 7 7 7 6 4 3 3 4 5 7 6 7 7 11 12 13 12 11 11 10 9 9
3 4 4 4 4 4 4 4 4 4 3 3 3 4 4 4 4 4 4 5 5 6 6 6 5 4 3 3 3 5 5 6 6 6 7 8 10 13 14 13 13 12 11
4 5 5 6 5 5 5 4 5 4 4 4 4 3 1 2 5 3 3 3 3 4 4 4 4 4 4 4 4 4 4 4 5 5 5 6 7 8 11 14 16 16 14
3 4 5 5 5 5 2 3 6 6 6 5 4 3 3 4 4 4 3 4 4 3 3 3 3 4 4 5 4 4 3 3 4 3 5 5 5 6 7 8 10 15 16
3 2 3 3 5 2 2 5 8 7 6 5 4 3 2 2 4 4 6 7 6 4 4 3 3 2 2 3 4 5 4 4 3 1 2 4 4 6 6 5 6 10 13
4 3 3 3 2 1 1 5 7 10 7 6 5 5 4 4 2 4 3 4 3 4 4 5 4 2 1 2 3 3 3 3 2 2 3 3 3 4 4 5 6 11 12
5 5 5 4 3 3 4 3 6 7 5 5 4 3 3 3 4 2 5 4 4 3 3 5 6 4 3 1 2 3 3 3 3 3 4 3 3 3 3 4 3 7 10
6 5 6 6 6 6 8 6 5 3 4 3 2 2 1 3 2 2 6 4 3 1 2 3 5 6 6 6 7 6 3 3 2 2 4 3 2 2 3 2 1 1 4
Wind_Direction
193 174 186 179 195 174 173 189 201 158 178 139 109 109 89 74 125 70 102 89 40 359 227 178 159 141 163 169 169 179 180 175 173 171 169 165 163 163 164 158 143 120 91
196 185 193 185 193 188 184 195 190 184 201 176 158 98 28 62 87 108 94 121 98 65 65 113 135 132 121 142 152 160 178 193 195 193 189 185 184 186 198 210 214 193 102
197 197 197 189 190 191 192 201 179 210 201 180 177 160 114 55 36 113 107 116 128 106 81 74 82 102 101 100 113 128 148 182 201 206 205 202 197 200 211 227 239 246 253
204 198 200 200 196 194 199 192 211 203 189 196 182 168 161 141 180 91 157 151 132 127 108 77 66 66 80 78 88 114 121 135 167 194 202 210 212 217 224 235 244 251 253
211 201 205 205 195 202 206 206 208 212 200 194 187 189 199 172 156 206 180 138 127 159 126 111 94 63 52 48 61 110 126 136 144 158 179 207 223 232 240 243 249 247 251
223 216 207 213 204 206 213 219 209 216 216 204 209 201 210 213 214 223 220 201 205 161 145 151 173 119 81 47 43 71 104 110 144 173 199 230 244 251 252 253 253 250 251
226 226 222 217 213 217 219 222 215 209 210 208 210 215 214 226 233 205 226 227 211 182 215 188 218 208 146 125 73 48 53 77 92 96 77 55 341 301 283 279 259 249 250
225 228 228 223 219 222 226 222 213 214 208 208 216 221 227 211 220 225 219 232 235 192 229 213 195 193 209 184 105 71 39 52 84 88 70 54 21 339 321 299 270 265 260
229 231 236 232 228 224 223 221 214 212 208 211 223 220 229 230 201 208 219 222 232 226 224 224 220 200 189 205 168 135 69 29 40 65 63 50 33 21 10 352 307 278 266
230 232 236 235 232 229 227 221 215 217 213 207 210 228 243 256 220 209 209 227 229 227 229 213 227 221 202 209 151 96 120 12 347 340 9 26 28 26 13 3 355 331 275
234 232 232 232 233 230 231 225 217 219 219 217 207 202 210 224 238 239 237 229 218 225 227 223 216 222 214 214 213 164 157 210 244 276 307 337 2 13 18 17 5 352 329
231 228 225 225 227 228 230 227 223 221 227 228 222 215 211 212 215 220 232 240 243 231 216 217 224 219 217 221 216 151 182 204 210 214 228 273 350 1 5 0 358 352 344
212 208 210 217 219 224 227 224 225 226 226 231 230 228 228 231 228 221 226 235 244 251 231 220 220 218 215 220 208 172 200 203 205 204 204 211 230 357 1 357 357 353 353
210 195 196 201 204 212 215 215 230 228 232 231 235 236 237 236 231 226 227 227 236 246 243 239 209 216 216 217 206 182 202 193 200 203 204 207 209 219 312 354 359 356 355
182 182 179 177 177 189 203 201 219 222 230 235 238 239 239 240 234 233 230 229 232 241 241 240 224 215 215 223 182 202 220 185 193 200 203 205 208 212 222 263 323 340 347
168 171 174 167 165 169 186 193 213 222 229 232 237 241 239 238 235 233 231 231 230 240 251 242 232 225 206 221 200 226 229 162 189 199 203 206 210 213 218 229 249 270 292
173 171 166 175 169 174 179 183 210 209 227 233 232 235 237 235 233 229 228 228 229 229 242 246 221 237 223 232 196 223 227 207 201 196 203 207 211 215 221 227 235 244 256
179 182 165 181 168 180 189 196 202 210 223 236 239 241 242 237 235 233 228 228 229 229 237 247 232 218 233 243 241 224 222 224 229 183 196 207 213 217 221 226 231 235 243
193 193 193 195 190 199 198 205 208 211 217 230 239 247 251 246 242 236 233 234 233 232 230 239 237 214 218 225 237 239 231 229 236 192 194 210 215 219 223 225 227 229 234
231 231 223 221 214 214 218 213 214 215 211 218 229 241 248 255 259 246 239 239 238 235 227 230 233 215 206 202 221 226 226 217 227 223 213 214 213 216 224 227 227 227 228
265 252 241 235 227 230 231 231 223 225 220 214 218 222 219 6 3 335 310 276 242 232 226 225 227 217 204 189 210 217 230 224 231 226 227 218 215 221 215 222 228 229 225
292 270 254 244 236 233 168 236 258 229 226 221 218 212 167 195 184 217 271 312 316 284 257 236 235 232 223 208 201 199 212 217 228 205 232 237 230 240 239 239 208 207 216
346 310 287 270 255 232 167 221 239 251 236 235 232 209 198 206 234 220 192 211 226 231 264 283 259 243 237 206 194 198 206 216 227 176 215 246 227 244 254 249 207 205 213
15 359 348 333 309 359 285 249 229 240 234 226 227 232 226 219 217 294 263 244 243 210 216 242 258 258 249 199 198 202 198 210 227 202 199 245 239 247 263 266 219 218 223
27 23 19 10 1 25 15 303 245 232 229 225 225 239 266 261 100 288 273 265 258 234 200 252 301 317 346 286 265 223 202 206 220 208 192 232 251 258 264 258 232 217 231
36 36 35 26 25 28 25 6 298 243 229 216 212 205 85 331 49 263 267 276 281 292 257 206 219 219 228 209 214 240 238 240 247 234 181 207 247 254 270 233 271 267 235